Simultaneous Nadir Overpasses (SNOs) Predictions

Prediction of SNOs between NOAA-21 and METOP-C Satellite Orbit:

Table of predicted SNOs for the next 14.0 days since TLE Epoch: 2/25/2023
Index Date (NOAA-21) Time (NOAA-21) Lat,Lon (NOAA-21) SZA (NOAA-21 ) Date (METOP-C) Time (METOP-C) Lat,Lon (METOP-C) SZA (METOP-C ) Distance(km) Time Diff (sec)
1 02/25/2023 07:04:46 72.75, 65.59 82.16 02/25/2023 07:05:53 72.73, 65.50 82.13 3.72 67
2 02/25/2023 07:55:30 -72.76,-127.10 97.86 02/25/2023 07:56:35 -72.78,-127.08 97.85 3.27 65
3 02/25/2023 08:46:16 72.76, 40.21 82.13 02/25/2023 08:47:14 72.76, 40.22 82.13 0.81 58
4 02/25/2023 09:37:00 -72.76,-152.49 97.88 02/25/2023 09:37:57 -72.76,-152.46 97.89 0.87 57
5 02/25/2023 10:27:46 72.76, 14.82 82.11 02/25/2023 10:28:36 72.74, 14.83 82.08 2.24 50
6 02/25/2023 11:18:30 -72.77,-177.87 97.90 02/25/2023 11:19:19 -72.74,-177.85 97.94 2.83 49
7 02/25/2023 12:09:15 72.71, -10.46 82.04 02/25/2023 12:09:58 72.72, -10.55 82.04 3.16 43
8 02/25/2023 12:59:59 -72.72, 156.85 97.98 02/25/2023 13:00:41 -72.72, 156.77 97.98 2.57 42
9 02/25/2023 13:50:45 72.72, -35.84 82.02 02/25/2023 13:51:19 72.75, -35.83 82.04 3.16 34
10 02/25/2023 14:41:29 -72.72, 131.46 98.00 02/25/2023 14:42:02 -72.75, 131.49 97.98 2.83 33
11 02/25/2023 15:32:15 72.72, -61.23 82.00 02/25/2023 15:32:41 72.73, -61.22 81.99 0.41 26
12 02/25/2023 16:22:59 -72.73, 106.08 98.02 02/25/2023 16:23:24 -72.73, 106.11 98.03 0.97 25
13 02/25/2023 17:13:45 72.73, -86.61 81.98 02/25/2023 17:14:03 72.70, -86.60 81.94 2.85 18
14 02/25/2023 18:04:28 -72.73, 80.69 98.04 02/25/2023 18:04:45 -72.71, 80.72 98.07 3.35 17
15 02/25/2023 18:55:13 72.68,-111.89 81.90 02/25/2023 18:55:24 72.68,-111.99 81.90 3.05 11
16 02/25/2023 19:45:57 -72.69, 55.41 98.11 02/25/2023 19:46:07 -72.68, 55.34 98.12 2.52 10
17 02/25/2023 20:36:43 72.69,-137.28 81.88 02/25/2023 20:36:45 72.71,-137.27 81.90 2.57 2
18 02/25/2023 21:27:27 -72.69, 30.03 98.14 02/25/2023 21:27:28 -72.71, 30.06 98.12 2.39 1
19 02/25/2023 22:18:13 72.69,-162.66 81.86 02/25/2023 22:18:07 72.69,-162.65 81.85 0.65 6
20 02/25/2023 23:08:57 -72.70, 4.64 98.16 02/25/2023 23:08:50 -72.69, 4.67 98.16 1.31 7
21 02/25/2023 23:59:43 72.70, 171.95 81.84 02/25/2023 23:59:29 72.67, 171.97 81.81 3.48 14
22 02/26/2023 00:50:26 -72.65, -20.64 98.23 02/26/2023 00:50:12 -72.67, -20.71 98.21 3.03 14
23 02/26/2023 01:41:12 72.65, 146.67 81.76 02/26/2023 01:40:51 72.65, 146.58 81.76 3.04 21
24 02/26/2023 02:31:56 -72.66, -46.02 98.25 02/26/2023 02:31:34 -72.65, -46.09 98.25 2.56 22
25 02/26/2023 03:22:42 72.66, 121.28 81.74 02/26/2023 03:22:12 72.68, 121.30 81.76 1.97 30
26 02/26/2023 04:13:26 -72.66, -71.41 98.27 02/26/2023 04:12:55 -72.68, -71.37 98.25 1.98 31
27 02/26/2023 05:04:12 72.66, 95.90 81.72 02/26/2023 05:03:34 72.65, 95.92 81.72 1.23 38
28 02/26/2023 05:54:56 -72.67, -96.79 98.30 02/26/2023 05:54:17 -72.66, -96.76 98.30 1.78 39
29 02/26/2023 06:45:41 72.62, 70.62 81.64 02/26/2023 06:44:56 72.63, 70.53 81.67 3.26 45
30 02/26/2023 07:36:25 -72.62,-122.07 98.37 02/26/2023 07:35:39 -72.63,-122.14 98.35 2.59 46
31 02/26/2023 08:27:11 72.62, 45.23 81.62 02/26/2023 08:26:18 72.61, 45.15 81.63 3.16 53
32 02/26/2023 09:17:55 -72.63,-147.46 98.39 02/26/2023 09:17:01 -72.61,-147.53 98.39 2.73 54
33 02/26/2023 10:08:41 72.63, 19.85 81.60 02/26/2023 10:07:39 72.64, 19.87 81.62 1.40 62
34 02/26/2023 10:59:25 -72.63,-172.84 98.41 02/26/2023 10:58:22 -72.64,-172.81 98.39 1.66 63
35 02/26/2023 11:50:11 72.63, -5.54 81.58 02/26/2023 11:49:01 72.62, -5.52 81.58 1.89 70
36 02/26/2023 12:40:55 -72.64, 161.77 98.44 02/26/2023 12:39:44 -72.62, 161.81 98.44 2.33 71
37 02/26/2023 13:31:38 72.49, -30.61 81.39 02/26/2023 13:30:25 72.49, -31.11 81.45 16.52 73
38 02/26/2023 14:22:22 -72.49, 136.69 98.62 02/26/2023 14:21:08 -72.50, 136.22 98.57 15.80 74
39 02/26/2023 15:13:02 72.18, -55.39 81.03 02/26/2023 15:11:52 72.22, -56.99 81.18 54.47 70
40 02/26/2023 16:03:46 -72.19, 111.91 98.98 02/26/2023 16:02:36 -72.17, 110.24 98.88 56.95 70
41 02/26/2023 16:54:26 71.88, -80.19 80.68 02/26/2023 16:53:20 71.88, -82.96 80.87 95.68 66
42 02/26/2023 17:45:10 -71.89, 87.11 99.33 02/26/2023 17:44:03 -71.89, 84.37 99.15 94.61 67



Historial Predications of SNOs between NOAA-21 and METOP-C
